Regional Weather Roundup
Issued by NWS

Home | Current Version | Previous Version | Graphics & Text | Print | Product List | Glossary On
Versions: 1 2 3 4 5 6 7 8 9 10 11 12 13 14 15 16 17 18 19 20 21 22 23 24 25 26 27 28 29 30 31 32 33 34 35 36 37 38 39 40 41 42 43 44 45 46 47 48 49 50
000
ASUS43 KDTX 061701
RWRMI
MICHIGAN HOURLY REGIONAL WEATHER ROUNDUP
NATIONAL WEATHER SERVICE DETROIT/PONTIAC MI
1200 PM EST FRI MAR 06 2015

NOTE: "FAIR" INDICATES FEW OR NO CLOUDS BELOW 12,000 FEET WITH NO
SIGNIFICANT WEATHER AND/OR OBSTRUCTION TO VISIBILITY.

MIZ047>049-052>055-059>063-066>070-074>076-081>083-061800-
SOUTHEAST LOWER MICHIGAN

CITY           SKY/WX    TMP DP  RH WIND       PRES   REMARKS
ADRIAN         MOSUNNY   14   3  61 SW17      30.45F WCI  -3
ALMA           MOSUNNY   16   8  71 S13G18    30.35F WCI   3
ANN ARBOR      SUNNY     15   4  61 SW13      30.42F WCI   1
BAD AXE        SUNNY     18   5  56 SW15G21   30.34F WCI   4
CARO           MOSUNNY   19   2  48 SW14      30.35F WCI   5
DETROIT CITY   MOSUNNY   20   5  52 SW16      30.43F WCI   6
DETROIT        PTSUNNY   19   7  59 S20       30.45F WCI   3
FLINT          MOSUNNY   20   1  43 SW16      30.38F WCI   6
GROSSE ILE     SUNNY     18  10  73 S21       30.44F WCI   1
HILLSDALE      SUNNY     16   0  50 SW12      30.39F WCI   3
HOWELL         MOSUNNY   19  -1  42 SW13G18   30.37F WCI   5

CITY           SKY/WX    TMP DP  RH WIND       PRES   REMARKS
JACKSON        MOSUNNY   17   1  49 SW13      30.39F WCI   4
LAMBERTVILLE   MOSUNNY   21   5  49 SW15G21   30.46F WCI   8
LANSING        MOSUNNY   17   2  51 SW14      30.38F WCI   3
LAPEER         FAIR      19   1  45 SW12      30.37S WCI   7
MASON          MOSUNNY   16   1  51 SW7       30.38F WCI   6
MONROE         MOSUNNY   19   7  58 SW12      30.44F WCI   7
MT. CLEMENS    PTSUNNY   21   4  48 SW16      30.39F WCI   7
PONTIAC        PTSUNNY   18   3  52 S14G23    30.36F WCI   4
PORT HOPE        N/A     18   4  54 SW12G24   30.31F WCI   5
PORT HURON     SUNNY     18   7  62 S14       30.41F WCI   4
TRI CITIES     FAIR      18   7  62 SW16      30.35F WCI   3
TROY           MOSUNNY   22   4  45 S16G22    30.43F WCI   8
SAGINAW HB     MOSUNNY   19   5  53 S17G24    30.36F WCI   4
$$
MIZ043>046-050>051-056>058-064>065-071>073-077>080-061800-
SOUTHWEST LOWER MICHIGAN

CITY           SKY/WX    TMP DP  RH WIND       PRES   REMARKS
BATTLE CREEK   SUNNY     15   2  56 SW15      30.38F WCI   0
BENTON HARBOR  SUNNY     14   3  61 S16G23    30.40F WCI  -2
BIG RAPIDS     SUNNY     20  11  66 SW13G23   30.26F WCI   8
COLDWATER      SUNNY     15   1  52 SW10      30.41F WCI   3
FREMONT        CLOUDY    20  11  70 SW14G25   30.30F WCI   6
HOLLAND        SUNNY     17   4  56 SW22      30.37F WCI   0
GRAND RAPIDS   PTSUNNY   15   1  53 SW14      30.36F WCI   0
IONIA          FAIR      18   4  54 S13       30.35F WCI   4
KALAMAZOO      SUNNY     16   3  56 S14       30.39F WCI   2
LUDINGTON      MOSUNNY   23  13  67 SW22G31   30.27F WCI   7
MARSHALL       MOSUNNY   15   0  52 SW12      30.39F WCI   1
MOUNT PLEASANT MOSUNNY   20   9  62 SW16      30.31F WCI   6
MUSKEGON       LGT SNOW  17  10  74 S18       30.34F WCI   1
SOUTH HAVEN    SUNNY     18   1  47 S12G17    30.37F WCI   6
$$
MIZ016>042-061800-
NORTHERN LOWER MICHIGAN

CITY           SKY/WX    TMP DP  RH WIND       PRES   REMARKS
ALPENA         SUNNY     23   5  46 SW14      30.20F WCI  11
BEAVER ISLAND  SUNNY     21  12  70 SW18G31   30.13F HAZE    WCI   6
BELLAIRE       MOSUNNY   23   7  51 S10G21    30.20F WCI  12
CADILLAC       SUNNY     20   7  57 SW18G28   30.18F WCI   4
CHARLEVOIX     MOSUNNY   21  10  63 S15G23    30.19F WCI   8
FRANKFORT      MOSUNNY   23  15  71 SW15G28   30.22F WCI  10
GAYLORD        MOSUNNY   20   6  55 SW16G23   30.14F WCI   6
GRAYLING       MOSUNNY   20   6  54 S14G20    30.19F WCI   7
HARBOR SPRINGS MOSUNNY   22  10  59 SW13G21   30.15F WCI   9
HOUGHTON LAKE  MOSUNNY   18   6  59 SW12      30.22F WCI   5
MANISTEE       SUNNY     23   9  54 SW16G25   30.25F WCI  10
OSCODA         MOSUNNY   18   7  63 SW16      30.26F WCI   3
PELLSTON       MOSUNNY   20   8  60 SW12G24   30.15F WCI   8
ROGERS CITY    PTSUNNY   23   8  52 SW15      30.18F WCI  10
TRAVERSE CITY  PTSUNNY   24   8  50 SW10G21   30.19F WCI  14
$$
MIZ007>008-015-061800-
EASTERN UPPER MICHIGAN

CITY           SKY/WX    TMP DP  RH WIND       PRES   REMARKS
KINROSS        SUNNY     21   9  58 SW16G25   30.09F WCI   7
MACKINAC ISLAN MOSUNNY   20  11  67 SW10G22   30.13F WCI   9
NEWBERRY       SUNNY     19  10  67 S20G26    30.04F WCI   4
S. S. MARIE    SUNNY     18   5  57 SW14G22   30.08F WCI   4
MUNISING         N/A     21   2  43 S18G35    29.98F WCI   6
$$
MIZ004>006-011>014-085-061800-
CENTRAL UPPER MICHIGAN

CITY           SKY/WX    TMP DP  RH WIND       PRES   REMARKS
MANISTIQUE     PTSUNNY   19   8  62 SW18G26   30.09F WCI   4
ESCANABA       PTSUNNY   12   3  67 S15G23    30.09F WCI  -4
MENOMINEE      SUNNY     18   3  53 SW14      30.11F WCI   4
SAWYER-GWINN   SUNNY     19   3  49 SW18G26   29.94F WCI   4
$$
MIZ001>003-009>011-084-061800-
WESTERN UPPER MICHIGAN

CITY           SKY/WX    TMP DP  RH WIND       PRES   REMARKS
IRON MOUNTAIN  SUNNY     25   6  44 SW10      29.98F WCI  15
HOUGHTON       CLOUDY    20   7  57 W20G29    29.90S WCI   4
COPPER HARBOR    N/A     23   6  48 VRB6G21   29.91F WCI  16
IRONWOOD       MOSUNNY   21   7  53 SW14      29.92F WCI   8
$$

ABBREVIATIONS USED IN REMARKS
   TC - TEMPERATURE IN CELSIUS
  WCI - WIND CHILL INDEX
   HX - HEAT INDEX
  VSB - VISIBILITY




USA.gov is the U.S. government's official web portal to all federal, state and local government web resources and services.